Location: Brabourne
(51.1333°N, 1.0000°E)
Time: 21:55:32
(UTC+00:00)

Cosmos 2150 Rocket - Pass Details

Date: 20 June 2021
Orbit: 749 x 808 km, 74.0° (Epoch: 02 August)

Event Time Altitude Azimuth Distance (km) Brightness Sun altitude
Rises 02:36:47 0° 331° (NNW) 3,218 7.6 -7.6°
Reaches altitude 10° 02:39:12 10° 326° (NW) 2,294 6.7 -7.4°
Maximum altitude 02:44:09 47° 254° (WSW) 1,013 4.3 -6.9°
Drops below altitude 10° 02:49:09 10° 182° (S) 2,310 6.0 -6.4°
Sets 02:51:36 0° 176° (S) 3,242 6.8 -6.2°
